Regional Weather Roundup
Issued by NWS

Home | Current Version | Previous Version | Text Only | Print | Product List | Glossary On
Versions: 1 2 3 4 5 6 7 8 9 10 11 12 13 14 15 16 17 18 19 20 21 22 23 24 25 26 27 28 29 30 31 32 33 34 35 36 37 38 39 40 41 42 43 44 45 46 47 48 49 50
000
ASUS43 KBIS 231810
RWRND

NORTH DAKOTA REGIONAL WEATHER ROUNDUP
NATIONAL WEATHER SERVICE BISMARCK ND
100 PM CDT SAT SEP 23 2017

NOTE: "FAIR" INDICATES FEW OR NO CLOUDS BELOW 12,000 FEET WITH NO
SIGNIFICANT WEATHER AND/OR OBSTRUCTIONS TO VISIBILITY.


NDZ001>003-009>011-017-231900-
NORTHWEST NORTH DAKOTA

CITY           SKY/WX    TMP DP  RH WIND       PRES   REMARKS
WILLISTON      CLOUDY    50  41  71 N3        30.16S
6HR MIN TEMP:  45; 6HR MAX TEMP:  51;

MINOT          CLOUDY    53  43  68 N7        30.12F
MINOT AFB      PTSUNNY   54  41  62 N7        30.10F
$$

NDZ018>021-031>035-040>046-231900-
SOUTHWEST NORTH DAKOTA

CITY           SKY/WX    TMP DP  RH WIND       PRES   REMARKS
BISMARCK       CLOUDY    53  47  79 N12       30.10F
6HR MIN TEMP:  49; 6HR MAX TEMP:  53;

DICKINSON      CLOUDY    48  43  82 NE5       30.11F
GARRISON         N/A     51  41  68 VRB6      30.13S
6HR MIN TEMP:  44; 6HR MAX TEMP:  51;

HETTINGER ARPT CLOUDY    46  42  86 N7        30.12R
$$

NDZ004>008-012>016-024-026-027-054-231900-
NORTHEAST NORTH DAKOTA

CITY           SKY/WX    TMP DP  RH WIND       PRES   REMARKS
GRAND FORKS    CLOUDY    59  51  75 N13       30.06R
GRND FRKS AFB  CLOUDY    59  48  67 N13G20    30.05S
DEVILS LAKE    CLOUDY    54  45  71 N13       30.09F
$$

NDZ022-023-025-028>030-036>039-047>053-231900-
SOUTHEAST NORTH DAKOTA

CITY           SKY/WX    TMP DP  RH WIND       PRES   REMARKS
FARGO          CLOUDY    56  50  80 N8        30.06R
6HR MIN TEMP:  52; 6HR MAX TEMP:  57;

JAMESTOWN      CLOUDY    56  47  71 N9        30.08R
$$




USA.gov is the U.S. government's official web portal to all federal, state and local government web resources and services.